| time (UTC) | temp F | wind direction | speed MPH | gust MPH | rain 1hr in | rain 24hr in | rain mn in | humidity % | barometer mb |
| 20260509063004 | 0 | 250 | 10.0 | 19.0 | 0.00 | 0.02 | 0.02 | 1016.0 | |
| 20260509061610 | 0 | 179 | 9.0 | 19.0 | 0.01 | 0.02 | 0.02 | 1015.9 | |
| 20260509060056 | 0 | 178 | 6.0 | 15.0 | 0.02 | 0.02 | 0.02 | 1015.8 | |
| 20260509054558 | 0 | 256 | 3.0 | 11.0 | 0.02 | 0.02 | 0.02 | 1015.9 | |
| 20260509053058 | 0 | 232 | 5.0 | 13.0 | 0.02 | 0.02 | 0.02 | 1015.9 | |
| 20260509051548 | 0 | 203 | 3.0 | 8.0 | 0.01 | 0.01 | 0.01 | 1016.0 | |
| 20260509050038 | 0 | 237 | 1.0 | 12.0 | 0.00 | 0.00 | 0.00 | 1015.9 | |
| 20260509044538 | 0 | 296 | 3.0 | 18.0 | 0.00 | 0.00 | 0.00 | 1015.8 | |
| 20260509043028 | 0 | 270 | 6.0 | 15.0 | 0.00 | 0.00 | 0.00 | 1015.6 | |
| 20260509041525 | 0 | 258 | 9.0 | 18.0 | 0.00 | 0.00 | 0.00 | 1015.7 | |
| 20260509040023 | 0 | 183 | 4.0 | 13.0 | 0.00 | 0.00 | 0.00 | 1015.6 | |
| 20260509034519 | 0 | 215 | 8.0 | 18.0 | 0.00 | 0.00 | 0.00 | 1015.6 | |
| 20260509033015 | 0 | 256 | 6.0 | 20.0 | 0.00 | 0.00 | 0.00 | 1015.7 | |
| 20260509031510 | 0 | 217 | 4.0 | 15.0 | 0.00 | 0.00 | 0.00 | 1015.7 | |
| 20260509030006 | 0 | 198 | 5.0 | 26.0 | 0.00 | 0.00 | 0.00 | 1015.7 | |
| 20260509024502 | 0 | 214 | 6.0 | 26.0 | 0.00 | 0.00 | 0.00 | 1015.9 | |
| 20260509023101 | 0 | 215 | 7.0 | 15.0 | 0.00 | 0.00 | 0.00 | 1015.9 | |
| 20260509021559 | 0 | 188 | 12.0 | 27.0 | 0.00 | 0.00 | 0.00 | 1016.2 | |
| 20260509020054 | 0 | 253 | 6.0 | 16.0 | 0.00 | 0.00 | 0.00 | 1016.2 | |
| 20260509014551 | 0 | 179 | 9.0 | 19.0 | 0.00 | 0.00 | 0.00 | 1016.1 | |
| 20260509013046 | 0 | 207 | 9.0 | 22.0 | 0.00 | 0.00 | 0.00 | 1016.2 | |
| 20260509011542 | 0 | 161 | 10.0 | 19.0 | 0.00 | 0.00 | 0.00 | 1016.0 | |
| 20260509010037 | 0 | 278 | 4.0 | 14.0 | 0.00 | 0.00 | 0.00 | 1015.7 | |
| 20260509004538 | 0 | 252 | 8.0 | 11.0 | 0.00 | 0.00 | 0.00 | 1015.7 | |
| 20260509003037 | 0 | 226 | 3.0 | 9.0 | 0.00 | 0.00 | 0.00 | 1015.6 | |
| 20260509001530 | 0 | 261 | 2.0 | 9.0 | 0.00 | 0.00 | 0.00 | 1015.5 | |
| 20260509000025 | 0 | 190 | 4.0 | 14.0 | 0.00 | 0.00 | 0.00 | 1015.4 | |
| 20260508234520 | 0 | 273 | 3.0 | 16.0 | 0.00 | 0.00 | 0.00 | 1015.3 | |
| 20260508233018 | 0 | 190 | 7.0 | 14.0 | 0.00 | 0.00 | 0.00 | 1015.3 | |
| 20260508231514 | 0 | 215 | 1.0 | 9.0 | 0.00 | 0.00 | 0.00 | 1015.4 | |
| 20260508230007 | 0 | 223 | 3.0 | 13.0 | 0.00 | 0.00 | 0.00 | 1015.6 | |
| 20260508224503 | 0 | 198 | 0.0 | 9.0 | 0.00 | 0.00 | 0.00 | 1015.5 | |
| 20260508223059 | 0 | 201 | 3.0 | 10.0 | 0.00 | 0.00 | 0.00 | 1015.6 | |
| 20260508221555 | 0 | 205 | 5.0 | 10.0 | 0.00 | 0.00 | 0.00 | 1015.6 | |
| 20260508220049 | 0 | 209 | 4.0 | 10.0 | 0.00 | 0.00 | 0.00 | 1015.7 | |
| 20260508214618 | 0 | 186 | 5.0 | 11.0 | 0.00 | 0.00 | 0.00 | 1015.7 | |
| 20260508213050 | 0 | 188 | 8.0 | 13.0 | 0.00 | 0.00 | 0.00 | 1015.8 | |
| 20260508211545 | 0 | 183 | 5.0 | 12.0 | 0.00 | 0.00 | 0.00 | 1016.0 | |
| 20260508210052 | 0 | 180 | 4.0 | 10.0 | 0.00 | 0.00 | 0.00 | 1016.0 | |
| 20260508204544 | 0 | 174 | 2.0 | 13.0 | 0.00 | 0.00 | 0.00 | 1016.0 | |
| 20260508203046 | 0 | 188 | 4.0 | 10.0 | 0.00 | 0.00 | 0.00 | 1016.2 | |
| 20260508201546 | 0 | 188 | 6.0 | 10.0 | 0.00 | 0.00 | 0.00 | 1016.2 | |
| 20260508200043 | 0 | 179 | 7.0 | 13.0 | 0.00 | 0.00 | 0.00 | 1016.2 | |
| 20260508194642 | 0 | 183 | 8.0 | 14.0 | 0.00 | 0.00 | 0.00 | 1016.3 | |
| 20260508193051 | 0 | 188 | 7.0 | 13.0 | 0.00 | 0.00 | 0.00 | 1016.3 | |
| 20260508191541 | 0 | 183 | 7.0 | 13.0 | 0.00 | 0.00 | 0.00 | 1016.2 | |
| 20260508190039 | 0 | 169 | 7.0 | 14.0 | 0.00 | 0.00 | 0.00 | 1016.5 | |
| 20260508184539 | 0 | 188 | 6.0 | 12.0 | 0.00 | 0.00 | 0.00 | 1016.5 | |
| 20260508183039 | 0 | 198 | 2.0 | 11.0 | 0.00 | 0.00 | 0.00 | 1016.5 | |
| 20260508181543 | 0 | 197 | 5.0 | 11.0 | 0.00 | 0.00 | 0.00 | 1016.6 | |
| 20260508180141 | 0 | 178 | 7.0 | 15.0 | 0.00 | 0.00 | 0.00 | 1016.4 | |
| 20260508174538 | 0 | 188 | 7.0 | 12.0 | 0.00 | 0.00 | 0.00 | 1016.3 | |
| 20260508173035 | 0 | 200 | 5.0 | 8.0 | 0.00 | 0.00 | 0.00 | 1016.4 | |
| 20260508171537 | 0 | 200 | 4.0 | 8.0 | 0.00 | 0.00 | 0.00 | 1016.3 | |
| 20260508170034 | 0 | 200 | 3.0 | 9.0 | 0.00 | 0.00 | 0.00 | 1016.4 | |
| 20260508164533 | 0 | 234 | 3.0 | 11.0 | 0.00 | 0.00 | 0.00 | 1016.4 | |
| 20260508163037 | 0 | 269 | 4.0 | 9.0 | 0.00 | 0.00 | 0.00 | 1016.4 | |
| 20260508161534 | 0 | 171 | 6.0 | 14.0 | 0.00 | 0.00 | 0.00 | 1016.2 | |
| 20260508160032 | 0 | 221 | 6.0 | 13.0 | 0.00 | 0.00 | 0.00 | 1016.1 | |
| 20260508154532 | 0 | 168 | 2.0 | 10.0 | 0.00 | 0.00 | 0.00 | 1016.2 | |
| 20260508153035 | 0 | 242 | 3.0 | 8.0 | 0.00 | 0.00 | 0.00 | 1016.1 | |
| 20260508151531 | 0 | 268 | 2.0 | 8.0 | 0.00 | 0.00 | 0.00 | 1016.1 | |
| 20260508150031 | 0 | 200 | 4.0 | 8.0 | 0.00 | 0.00 | 0.00 | 1016.0 | |
| 20260508144530 | 0 | 183 | 6.0 | 9.0 | 0.00 | 0.00 | 0.00 | 1015.9 | |
| 20260508143029 | 0 | 183 | 6.0 | 13.0 | 0.00 | 0.00 | 0.00 | 1015.8 | |
| 20260508141529 | 0 | 185 | 8.0 | 12.0 | 0.00 | 0.00 | 0.00 | 1015.9 | |
| 20260508140029 | 0 | 178 | 7.0 | 11.0 | 0.00 | 0.00 | 0.00 | 1015.9 | |
| 20260508134528 | 0 | 173 | 8.0 | 12.0 | 0.00 | 0.00 | 0.00 | 1016.1 | |
| 20260508133021 | 0 | 183 | 6.0 | 12.0 | 0.00 | 0.00 | 0.00 | 1016.1 | |
| 20260508131517 | 0 | 180 | 9.0 | 20.0 | 0.00 | 0.00 | 0.00 | 1016.1 | |
| 20260508130020 | 0 | 179 | 3.0 | 11.0 | 0.00 | 0.00 | 0.00 | 1016.1 | |
| 20260508124515 | 0 | 180 | 6.0 | 11.0 | 0.00 | 0.00 | 0.00 | 1016.1 | |
| 20260508123014 | 0 | 180 | 6.0 | 11.0 | 0.00 | 0.00 | 0.00 | 1016.0 | |
| 20260508121516 | 0 | 181 | 8.0 | 11.0 | 0.00 | 0.00 | 0.00 | 1016.0 | |
| 20260508120029 | 0 | 177 | 7.0 | 13.0 | 0.00 | 0.00 | 0.00 | 1016.0 | |
| 20260508114513 | 0 | 181 | 8.0 | 13.0 | 0.00 | 0.00 | 0.00 | 1015.9 | |
| 20260508113014 | 0 | 189 | 6.0 | 15.0 | 0.00 | 0.00 | 0.00 | 1015.8 | |
| 20260508111514 | 0 | 180 | 5.0 | 12.0 | 0.00 | 0.00 | 0.00 | 1015.9 | |
| 20260508110011 | 0 | 181 | 6.0 | 13.0 | 0.00 | 0.00 | 0.00 | 1015.9 | |
| 20260508104511 | 0 | 181 | 5.0 | 14.0 | 0.00 | 0.00 | 0.00 | 1015.9 | |
| 20260508103019 | 0 | 175 | 8.0 | 14.0 | 0.00 | 0.00 | 0.00 | 1015.8 | |
| 20260508101507 | 0 | 344 | 2.0 | 9.0 | 0.00 | 0.00 | 0.00 | 1015.8 | |
| 20260508100003 | 0 | 341 | 9.0 | 13.0 | 0.00 | 0.00 | 0.00 | 1015.8 | |
| 20260508094602 | 0 | 332 | 8.0 | 12.0 | 0.00 | 0.00 | 0.00 | 1015.8 | |
| 20260508093101 | 0 | 329 | 7.0 | 10.0 | 0.00 | 0.00 | 0.00 | 1015.9 | |
| 20260508091603 | 0 | 305 | 8.0 | 12.0 | 0.00 | 0.00 | 0.00 | 1015.9 | |
| 20260508090046 | 0 | 327 | 8.0 | 10.0 | 0.00 | 0.00 | 0.00 | 1015.9 | |
| 20260508084541 | 0 | 315 | 7.0 | 10.0 | 0.00 | 0.00 | 0.00 | 1015.9 | |
| 20260508083040 | 0 | 273 | 4.0 | 8.0 | 0.00 | 0.00 | 0.00 | 1015.9 | |
| 20260508081543 | 0 | 272 | 0.0 | 4.0 | 0.00 | 0.00 | 0.00 | 1016.0 | |
| 20260508080027 | 0 | 272 | 0.0 | 6.0 | 0.00 | 0.00 | 0.00 | 1016.0 | |
| 20260508074525 | 0 | 274 | 5.0 | 7.0 | 0.00 | 0.00 | 0.00 | 1016.1 | |
| 20260508073018 | 0 | 277 | 0.0 | 7.0 | 0.00 | 0.00 | 0.00 | 1016.1 | |
| 20260508071514 | 0 | 277 | 3.0 | 5.0 | 0.00 | 0.00 | 0.00 | 1016.2 | |
| 20260508070010 | 0 | 277 | 2.0 | 7.0 | 0.00 | 0.00 | 0.00 | 1016.2 | |
| 20260508064505 | 0 | 277 | 0.0 | 7.0 | 0.00 | 0.00 | 0.00 | 1016.2 |